DECAYED

STARLINK-5616, 55417 (Decayed)

Orbit data source: Space-Track

STARLINK-5616, 55417 was a payload satellite owned by SpaceX/Seattle (US) in LEO that was launched on Tue, 31 Jan 2023 UTC via an FALCON 9 launch vehicle from the Air Force Western Test Range (AFWTR). Payload-class satellites include a variety of spacecraft equipped with specific instruments for various scientific and technological missions. These include communications satellites like Starlink; space stations such as the ISS; scientific satellites like the Hubble; Earth observation satellites from companies like Planet Labs, Umbra, and HawkEye 360; GPS; miniature CubeSats for education and research; and military/defense satellites.

Not visible in the next 10 days
Identifier
55417, 2023-014AC
Orbit
Decayed
Country
Flag of USUS
Related business
Manufacturer
SpaceX/Seattle
Mission
Decayed Commercial Communications
Bus & Motor
STARLINK, Unknown motor
Mass
305 kg wet, ~290 kg dry
Launch date (UTC)
2023-01-31 (3 years ago)
Launch vehicle
FALCON 9
Launch site
Air Force Western Test Range (AFWTR)
Object type
Payload
Rocket body
Debris
Shape & HBR
Box + 1 Pan, 10.1 m
Radar Cross Section
13.562 m², Large (>1 m²)

Expand to show TLE details & history
Last TLE update: 1 year ago

TLE from 1 year ago
0 STARLINK-5616
1 55417U 23014AC  25112.96595041  .13310612  44397-5  26561-3 0  9994
2 55417  69.9762 158.6233 0011390 235.4280 190.1539 16.46269099123870
Epoch: 2025-04-22T23:10Z
TLE epoch observation values (Epoch: 2025-04-22T23:10:58.115Z)
Latitude
58.92176°
Longitude
-3.4229°
Altitude
165.871 km
Speed
7.808 km/s
True Right ascension
13h 02m 18s
True Declination
58° 45' 20"
Sunlit
Object was in full shadow at epoch
Visualization orbit readout
Latitude
Unknown
Longitude
Unknown
Altitude
Unknown
Speed
Unknown
Apparent Right ascension
Unknown
Apparent Declination
Unknown
Sunlit
N/A
Visualization observer readout
Local Sidereal Time
21:27:03
Azimuth
Unknown
Elevation
Unknown
Doppler factor
Unknown
Orbital elements
Apogee altitude
154.428 km
Perigee altitude
139.564 km
Semi-major axis
6,525.133 km
Eccentricity
0.00114
Inclination
69.9762°
RAAN
158.6233°
Arg. of periapsis
235.428°
True anomaly
190.13092°
Mean anomaly
190.1539°
Eccentric anomaly
190.14241°
Mean motion
4.11774 °/min
Orbital period
87.43 mins
BSTAR
0.00026561
Loading maneuver chart data...
Computing Atmospheric mass density...

Documentation

Showing up to 5 results
|